Regional Weather Roundup
Issued by NWS

Home | Current Version | Previous Version | Text Only | Print | Product List | Glossary On
Versions: 1 2 3 4 5 6 7 8 9 10 11 12 13 14 15 16 17 18 19 20 21 22 23 24 25 26 27 28 29 30 31 32 33 34 35 36 37 38 39 40 41 42 43 44 45 46 47 48 49 50
000
ASUS43 KMPX 020301
RWRMN
WEATHER ROUNDUP FOR MINNESOTA
NATIONAL WEATHER SERVICE TWIN CITIES/CHANHASSEN MN
1000 PM CDT WED OCT 01 2014


NOTE: "FAIR" INDICATES FEW OR NO CLOUDS BELOW 12,000 FEET WITH NO
SIGNIFICANT WEATHER AND/OR OBSTRUCTIONS TO VISIBILITY. N/A MEANS
CURRENT SKY AND/OR WEATHER CONDITIONS ARE NOT AVAILABLE.

MNZ060>063-068>070-020400-
   Twin Cities Metro

CITY           SKY/WX    TMP DP  RH WIND       PRES   REMARKS
TWIN CITIES    CLOUDY    58  56  93 SE5       29.83R FOG
ST PAUL        CLOUDY    58  56  93 CALM      29.84R FOG
CRYSTAL        CLOUDY    59  56  89 CALM      29.82R FOG
BLAINE         FOG       59  59 100 CALM      29.83R VSB 1
LAKEVILLE      MOCLDY    55  55 100 CALM      29.82R FOG
EDEN PRAIRIE   LGT RAIN  59  57  93 NE6       29.81R FOG
SOUTH ST PAUL  CLOUDY    58  57  95 CALM      29.83R FOG
LAKE ELMO      CLOUDY    55  55 100 CALM      29.84R FOG
$$
MNZ001>005-007-008-013>017-022>024-027-028-020400-
   Northwest Minnesota

CITY           SKY/WX    TMP DP  RH WIND       PRES   REMARKS
BEMIDJI        CLOUDY    56  54  91 S7        29.76R
HALLOCK        CLOUDY    57  52  82 W9        29.70R
ROSEAU         CLOUDY    59  52  77 SW8       29.69R
WARROAD        CLOUDY    59  54  82 SW6       29.69R
THIEF RVR FALL CLOUDY    57  52  82 SW8       29.73R
CROOKSTON      CLOUDY    59  52  77 W8        29.74R
FOSSTON        CLOUDY    57  54  88 SW7       29.76R
DETROIT LAKES  CLOUDY    59  50  72 SW5       29.79S
PARK RAPIDS    CLOUDY    54  53  97 W6        29.78R
MAHNOMEN       CLOUDY    59  51  73 SW9       29.76R
$$
MNZ006-009>011-018-025>026-020400-
   North Central Minnesota

CITY           SKY/WX    TMP DP  RH WIND       PRES   REMARKS
BAUDETTE       CLOUDY    57  54  89 S10       29.69R
FLAG ISLAND    CLOUDY    57  54  88 SW12      29.65R
INTL FALLS     CLOUDY    53  51  93 S8        29.73R
WASKISH        DRIZZLE   57  54  88 CALM      29.73R
BIG FORK       LGT RAIN  54  52  94 S7        29.77S
LONGVILLE      CLOUDY    54  54 100 S5        29.79S FOG
GRAND RAPIDS   CLOUDY    52  48  87 S9        29.80R
CRANE LAKE     CLOUDY    50  48  93 S6        29.78R
ORR            CLOUDY    50  48  93 S8G16     29.75S
COOK           CLOUDY    50  48  93 S7        29.79R
WALKER         CLOUDY    55  54  96 S5        29.77R FOG
$$
MNZ012-019>021-037-020400-
   Northeast Minnesota

CITY           SKY/WX    TMP DP  RH WIND       PRES   REMARKS
DULUTH         FOG       51  49  92 SW9       29.82R VSB 1/4
ELY            CLOUDY    48  46  93 S6        29.80R
HIBBING        CLOUDY    51  49  92 VRB5      29.80S FOG
EVELETH        CLOUDY    50  50 100 S6        29.81S FOG
DULUTH HARBOR  CLOUDY    54  52  94 SW3       29.83S
TWO HARBORS    CLOUDY    50  45  81 SW3       29.81R HAZE
SILVER BAY     FOG       48  48 100 CALM      29.80F VSB 1
GRAND MARAIS     N/A     50  48  93 CALM      29.83S
G MARAIS ARPRT DRZL/FOG  46  43  87 CALM      29.83S VSB<1/4
$$
MNZ029>031-032-039>041-046>048-054>057-064-020400-
   West Central Minnesota

CITY           SKY/WX    TMP DP  RH WIND       PRES   REMARKS
FERGUS FALLS   PTCLDY    57  46  67 CALM      29.81R
WHEATON        CLEAR     54  48  82 SW3       29.84R
MORRIS         PTCLDY    54  48  82 NW7       29.81R
ALEXANDRIA     PTCLDY    56  50  80 W3        29.82R
ELBOW LAKE     FAIR      53  48  84 W6        29.81R
WADENA         PTCLDY    52  50  93 W3        29.80R
GLENWOOD       PTCLDY    55  52  88 NW5       29.83R
APPLETON       PTCLDY    57  50  77 NW7       29.82R
BENSON         PTCLDY    55  50  82 N3        29.82R
ORTONVILLE     PTCLDY    55  48  76 CALM      29.83R
MADISON        PTCLDY    59  52  77 NW6       29.83R
WILLMAR        FAIR      55  54  94 CALM      29.83R FOG
$$
MNZ033>034-036-042>043-049>051-058-059-020400-
   Central Minnesota

CITY           SKY/WX    TMP DP  RH WIND       PRES   REMARKS
ST CLOUD       CLOUDY    58  55  90 S6        29.82R
SAUK CENTRE    MOCLDY    54  53  96 SE3       29.83R
PAYNESVILLE    MOCLDY    54  54 100 SE6       29.83R FOG
AITKIN         CLOUDY    55  52  88 CALM      29.79S HAZE
PINE RIVER     CLOUDY    54  54 100 S3        29.83S FOG
BRAINERD       CLOUDY    53  53 100 S6        29.81R FOG
STAPLES        CLOUDY    54  52  94 S5        29.81R
LONG PRAIRIE   MOCLDY    52  52 100 S3        29.83R
LITTLE FALLS   CLOUDY    54  52  94 S5        29.82R
LITCHFIELD     CLOUDY    57  57 100 CALM      29.82R FOG
BUFFALO        CLOUDY    57  55  92 CALM      29.83S FOG
MAPLE LAKE     CLOUDY    58  57  96 CALM      29.82F FOG
$$
MNZ037-044-045-052-053-020400-
   East Central Minnesota

CITY           SKY/WX    TMP DP  RH WIND       PRES   REMARKS
PRINCETON      CLOUDY    57  55  94 SE3       29.82S
MORA           CLOUDY    54  52  94 S3        29.84S FOG
CAMBRIDGE      CLOUDY    57  50  77 CALM      29.81S HAZE
RUSH CITY      LGT RAIN  54  53  96 CALM      29.83S
MOOSE LAKE     CLOUDY    52  50  93 S3        29.81R FOG
HINCKLEY       CLOUDY    54  54 100 S5        29.83R FOG
CLOQUET        CLOUDY    52  50  93 S8        29.82R FOG
MCGREGOR       CLOUDY    52  52 100 S3        29.81S
$$
MNZ071>073-080-081-089-090-097-098-020400-
   Southwest Minnesota

CITY           SKY/WX    TMP DP  RH WIND       PRES   REMARKS
MONTEVIDEO     PTCLDY    59  55  88 N6        29.83R
GRANITE FALLS  FOG       52  51  99 CALM      29.83R VSB 1/2
CANBY          CLEAR     55  51  87 NW6       29.84R
MARSHALL       CLEAR     54  50  87 W8        29.82R
REDWOOD FALLS  PTCLDY    56  55  97 CALM      29.80R
OLIVIA         PTCLDY    55  54  94 CALM      29.81R FOG
PIPESTONE      PTCLDY    59  52  77 CALM      29.83R
WINDOM         PTCLDY    59  57  94 NE3       29.82R
WORTHINGTON    PTCLDY    57  55  94 CALM      29.83R
JACKSON        MOCLDY    59  55  88 E3        29.82R
TRACY          PTCLDY    58  56  94 NW5       29.82R
SLAYTON        PTCLDY    56  52  86 NW5       29.83R
$$
MNZ065>067-074>077-082>085-091>093-020400-
   South Central Minnesota

CITY           SKY/WX    TMP DP  RH WIND       PRES   REMARKS
MANKATO        CLOUDY    61  55  82 SE7       29.82S
NEW ULM          N/A     57  57 100 CALM      29.80S
ST JAMES       MOCLDY    61  59  94 NE5       29.82S FOG
FAIRMONT       MOCLDY    61  55  82 CALM      29.82R
GLENCOE        CLOUDY    58  57  97 CALM      29.81R FOG
FARIBAULT      CLOUDY    55  55 100 W7        29.86R FOG
OWATONNA       PTCLDY    57  55  94 SE5       29.84R FOG
WASECA         MOCLDY    55  52  88 NW10      29.86R FOG
ALBERT LEA     PTCLDY    55  55 100 CALM      29.82R FOG
$$
MNZ078>079-086>088-094>096-020400-
   Southeast Minnesota

CITY           SKY/WX    TMP DP  RH WIND       PRES   REMARKS
ROCHESTER      PTCLDY    55  53  93 SE6       29.84S
RED WING       CLOUDY    57  55  94 CALM      29.83R
STANTON        MOCLDY    57  55  92 CALM      29.82R FOG
DODGE CENTER   FOG       55  54  94 CALM      29.83S VSB<1/4
WINONA         CLOUDY    55  55 100 CALM      29.84S
AUSTIN         CLEAR     55  54  94 SE3       29.83S FOG
PRESTON        CLOUDY    56  54  92 CALM      29.85S
$$
ABBREVIATIONS USED IN REMARKS
   TC - TEMPERATURES IN CELSIUS
  WCI - WIND CHILL INDEX
   HX - HEAT INDEX
  VSB - VISIBILITY
$$


USA.gov is the U.S. government's official web portal to all federal, state and local government web resources and services.